Date String (YYYY-MM-DD hh:mm:ss) UTC,Instrument flags,absolute air pressure of the measurement (hPa),sample flow rate (lpm),inlet stack bypass flow (lpm),air temperature of the measurement (°C),ambient temperature measured by the external sensor (°C),aerosol sample conditioner tube jacket temperature (°C),OPC LED temperature (°C),internal box temperature (°C),relative humidity of the measurement (%),span deviation,mass concentration of particles derived from Lorenz-Mie calculation of OPC scattering (μg/m³),mass concentration of particles derived from Lorenz-Mie calculation of OPC scattering (μg/m³),mass concentration of particles derived from Lorenz-Mie calculation of OPC scattering (μg/m³)
DateTimeUTC,F1_M11,P_M11,Q1_M11,Q2_M11,T1_M11,T2_M11,T3_M11,T4_M11,T5_M11,U1_M11,ZSPAN_M11,X0_M11,X2_M11,X1_M11
2023-12-05 17:00:00,SystemResetWarning,0835.1,4.99,000.00,022.0,021.4,000.0,030.2,023.4,14.8,0000.0,0000.86,0000.28,0000.20
2023-12-05 17:01:00,SystemResetWarning,0835.2,4.99,000.00,022.0,021.4,000.0,030.2,023.4,14.7,0000.0,0000.86,0000.28,0000.20
2023-12-05 17:02:00,SystemResetWarning,0835.3,5.00,000.00,022.1,021.5,000.0,030.2,023.5,18.1,0000.0,0000.77,0000.28,0000.20
2023-12-05 17:03:00,SystemResetWarning,0835.3,5.00,000.00,022.1,021.5,000.0,030.2,023.5,20.6,0000.0,0000.49,0000.28,0000.20
2023-12-05 17:04:00,SystemResetWarning,0835.3,5.01,000.00,022.1,021.5,000.0,030.2,023.5,21.8,0000.0,0000.68,0000.29,0000.20
2023-12-05 17:05:00,SystemResetWarning,0835.3,5.00,000.00,022.1,021.6,000.0,030.2,023.6,23.0,0000.0,0000.93,0000.30,0000.20
2023-12-05 17:06:00,SystemResetWarning,0835.3,5.00,000.00,022.2,021.6,000.0,030.2,023.6,23.2,0000.0,0001.03,0000.31,0000.20
2023-12-05 17:07:00,SystemResetWarning,0835.4,4.99,000.00,022.2,021.6,000.0,030.3,023.6,22.7,0000.0,0000.99,0000.29,0000.20
2023-12-05 17:08:00,SystemResetWarning,0835.3,4.99,000.00,022.2,021.6,000.0,030.3,023.7,21.9,0000.0,0001.01,0000.30,0000.20
2023-12-05 17:09:00,SystemResetWarning,0835.3,4.99,000.00,022.2,021.7,000.0,030.3,023.7,21.1,0000.0,0001.04,0000.31,0000.20
2023-12-05 17:10:00,SystemResetWarning,0835.4,5.00,000.00,022.3,021.7,000.0,030.3,023.7,20.9,0000.0,0001.06,0000.32,0000.21
2023-12-05 17:11:00,SystemResetWarning,0835.5,5.01,000.00,022.3,021.7,000.0,030.4,023.7,20.6,0000.0,0001.21,0000.43,0000.29
2023-12-05 17:12:00,SystemResetWarning,0835.5,5.01,000.00,022.3,021.8,000.0,030.4,023.8,20.6,0000.0,0001.49,0000.57,0000.41
2023-12-05 17:13:00,SystemResetWarning,0835.5,5.01,000.00,022.3,021.8,000.0,030.4,023.8,20.2,0000.0,0003.07,0000.80,0000.59
2023-12-05 17:14:00,SystemResetWarning,0835.5,5.00,000.00,022.4,021.8,000.0,030.4,023.8,20.0,0000.0,0004.24,0001.18,0000.86
2023-12-05 17:15:00,SystemResetWarning,0835.5,4.99,000.00,022.4,021.8,000.0,030.5,023.9,20.4,0000.0,0005.87,0001.66,0001.19
2023-12-05 17:16:00,SystemResetWarning,0835.5,5.01,000.00,022.4,021.9,000.0,030.5,023.9,20.4,0000.0,0006.39,0002.16,0001.62
2023-12-05 17:17:00,SystemResetWarning,0835.5,5.01,000.00,022.4,021.9,000.0,030.5,023.9,20.3,0000.0,0007.43,0002.88,0002.15
2023-12-05 17:18:00,SystemResetWarning,0835.8,5.01,000.00,022.5,021.9,000.0,030.5,023.9,19.9,0000.0,0008.34,0003.39,0002.69
2023-12-05 17:19:00,SystemResetWarning,0835.5,5.00,000.00,022.5,021.9,000.0,030.5,023.9,20.0,0000.0,0009.16,0003.77,0003.17
2023-12-05 17:20:00,SystemResetWarning,0835.5,4.99,000.00,022.5,022.0,000.0,030.6,024.0,20.3,0000.0,0010.26,0004.15,0003.49
2023-12-05 17:21:00,SystemResetWarning,0835.5,4.99,000.00,022.5,022.0,000.0,030.6,024.0,20.5,0000.0,0010.82,0004.52,0003.79
2023-12-05 17:22:00,SystemResetWarning,0835.5,5.00,000.00,022.6,022.0,000.0,030.6,024.0,20.2,0000.0,0011.25,0004.82,0004.05
2023-12-05 17:23:00,SystemResetWarning,0835.5,5.01,000.00,022.6,022.0,000.0,030.6,024.0,19.7,0000.0,0011.57,0005.08,0004.27
2023-12-05 17:24:00,SystemResetWarning,0835.5,5.01,000.00,022.6,022.0,000.0,030.7,024.1,18.6,0000.0,0011.30,0005.31,0004.47
2023-12-05 17:25:00,SystemResetWarning,0835.6,5.01,000.00,022.6,022.1,000.0,030.7,024.1,18.1,0000.0,0011.31,0005.49,0004.64
2023-12-05 17:26:00,SystemResetWarning,0835.5,5.00,000.00,022.6,022.1,000.0,030.7,024.1,18.3,0000.0,0011.10,0005.59,0004.77
2023-12-05 17:27:00,SystemResetWarning,0835.5,5.00,000.00,022.7,022.1,000.0,030.7,024.1,18.7,0000.0,0011.58,0005.65,0004.85
2023-12-05 17:28:00,SystemResetWarning,0835.5,5.00,000.00,022.7,022.1,000.0,030.7,024.1,18.9,0000.0,0011.59,0005.64,0004.88
2023-12-05 17:29:00,SystemResetWarning,0835.5,4.99,000.00,022.7,022.1,000.0,030.8,024.1,18.9,0000.0,0011.60,0005.62,0004.90
2023-12-05 17:30:00,SystemResetWarning,0835.5,5.00,000.00,022.7,022.1,000.0,030.8,024.2,18.8,0000.0,0011.75,0005.62,0004.92
2023-12-05 17:31:00,SystemResetWarning,0835.5,4.99,000.00,022.8,022.2,000.0,030.8,024.2,18.9,0000.0,0011.34,0005.64,0004.95
2023-12-05 17:32:00,SystemResetWarning,0835.5,4.99,000.00,022.8,022.2,000.0,030.8,024.2,19.0,0000.0,0011.19,0005.62,0004.94
2023-12-05 17:33:00,SystemResetWarning,0835.5,5.00,000.00,022.8,022.2,000.0,030.9,024.2,18.7,0000.0,0011.06,0005.55,0004.88
2023-12-05 17:34:00,SystemResetWarning,0835.5,5.00,000.00,022.8,022.2,000.0,030.9,024.2,18.8,0000.0,0011.01,0005.47,0004.80
2023-12-05 17:35:00,SystemResetWarning,0835.5,5.01,000.00,022.8,022.2,000.0,030.9,024.3,18.7,0000.0,0010.83,0005.39,0004.73
2023-12-05 17:36:00,SystemResetWarning,0835.5,5.01,000.00,022.9,022.3,000.0,030.9,024.3,18.7,0000.0,0010.85,0005.34,0004.66
2023-12-05 17:37:00,SystemResetWarning,0835.6,5.00,000.00,022.9,022.3,000.0,030.9,024.3,18.7,0000.0,0010.84,0005.26,0004.59
2023-12-05 17:38:00,SystemResetWarning,0835.6,5.01,000.00,022.9,022.3,000.0,031.0,024.3,18.6,0000.0,0010.16,0005.19,0004.53
2023-12-05 17:39:00,SystemResetWarning,0835.6,5.01,000.00,022.9,022.3,000.0,031.0,024.3,18.7,0000.0,0010.00,0005.08,0004.43
2023-12-05 17:40:00,SystemResetWarning,0835.5,4.99,000.00,022.9,022.3,000.0,031.0,024.4,18.5,0000.0,0009.52,0004.98,0004.34
2023-12-05 17:41:00,SystemResetWarning,0835.6,5.00,000.00,023.0,022.4,000.0,031.0,024.4,18.4,0000.0,0008.97,0004.90,0004.24
2023-12-05 17:42:00,SystemResetWarning,0835.6,5.00,000.00,023.0,022.4,000.0,031.0,024.4,18.4,0000.0,0008.68,0004.78,0004.13
2023-12-05 17:43:00,SystemResetWarning,0835.6,5.00,000.00,023.0,022.4,000.0,031.1,024.5,18.1,0000.0,0008.55,0004.65,0004.03
2023-12-05 17:44:00,SystemResetWarning,0835.6,5.01,000.00,023.0,022.4,000.0,031.1,024.5,18.1,0000.0,0008.55,0004.61,0004.00
2023-12-05 17:45:00,SystemResetWarning,0835.6,5.01,000.00,023.1,022.5,000.0,031.1,024.5,18.2,0000.0,0008.49,0004.61,0003.98
2023-12-05 17:46:00,SystemResetWarning,0835.6,5.00,000.00,023.1,022.5,000.0,031.1,024.5,17.8,0000.0,0008.41,0004.56,0003.94
2023-12-05 17:47:00,SystemResetWarning,0835.6,5.01,000.00,023.1,022.5,000.0,031.1,024.6,18.2,0000.0,0008.15,0004.47,0003.89
2023-12-05 17:48:00,SystemResetWarning,0835.6,5.00,000.00,023.1,022.6,000.0,031.2,024.6,18.1,0000.0,0007.80,0004.40,0003.83
2023-12-05 17:49:00,SystemResetWarning,0835.7,5.00,000.00,023.1,022.6,000.0,031.2,024.6,18.0,0000.0,0007.61,0004.33,0003.76
2023-12-05 17:50:00,SystemResetWarning,0835.6,5.00,000.00,023.2,022.6,000.0,031.2,024.6,18.3,0000.0,0007.92,0004.27,0003.70
2023-12-05 17:51:00,SystemResetWarning,0835.6,5.00,000.00,023.2,022.6,000.0,031.2,024.7,18.2,0000.0,0007.96,0004.19,0003.64
2023-12-05 17:52:00,SystemResetWarning,0835.5,5.00,000.00,023.2,022.6,000.0,031.3,024.7,18.0,0000.0,0007.80,0004.08,0003.57
2023-12-05 17:53:00,SystemResetWarning,0835.6,4.99,000.00,023.2,022.7,000.0,031.3,024.7,17.6,0000.0,0007.74,0004.01,0003.51
2023-12-05 17:54:00,SystemResetWarning,0835.5,5.00,000.00,023.3,022.7,000.0,031.3,024.7,17.6,0000.0,0007.70,0003.95,0003.46
2023-12-05 17:55:00,SystemResetWarning,0835.5,5.00,000.00,023.3,022.7,000.0,031.3,024.7,17.5,0000.0,0007.67,0003.91,0003.41
2023-12-05 17:56:00,SystemResetWarning,0835.5,5.00,000.00,023.3,022.7,000.0,031.3,024.8,17.6,0000.0,0007.63,0003.85,0003.38
2023-12-05 17:57:00,SystemResetWarning,0835.5,4.99,000.00,023.3,022.7,000.0,031.4,024.8,17.6,0000.0,0007.75,0003.80,0003.34
2023-12-05 17:58:00,SystemResetWarning,0835.5,4.99,000.00,023.3,022.8,000.0,031.4,024.8,17.5,0000.0,0007.73,0003.72,0003.29
2023-12-05 17:59:00,SystemResetWarning,0835.5,5.00,000.00,023.4,022.8,000.0,031.4,024.8,17.7,0000.0,0007.77,0003.68,0003.25
